Flag for Poland Weather past 2 weeks in Lublin, Poland

Now
49 °F

Fog.


Feels Like: 49 °F
Forecast: 45 / 70 °F
Wind: 2 mph from Southeast

Location: Lublin Radawiec


UV Index: 3 (Moderate)

Visibility: 4 mi


Pressure: 30.01 "Hg

Humidity: 93%

Dew point: 47 °F

Location of LublinLocation

Historic Weather in Lublin

°F

Lublin temperature yesterday

Maximum temperature yesterday: 67 °F (at 12:00 PM)
Minimum temperature yesterday: 50 °F (at 5:00 AM)
Average temperature yesterday: 56 °F

Past Weeks' High & Low Weather Summary

 TemperatureHumidityPressure
High69 °F (Apr 8, 2:00 PM)99% (Apr 7, 8:00 AM)30.36 "Hg (Apr 7, 8:00 AM)
Low32 °F (Apr 17, 5:00 AM)39% (Apr 19, 12:00 PM)29.64 "Hg (Apr 14, 2:00 PM)
Average46 °F76%30.02 "Hg
* Reported Apr 5 5:00 AM — Apr 20 5:00 AM, Lublin, Weather by CustomWeather, © 2014

Note: Actual official high and low records may vary slightly from our data, if they occured in-between our weather recording intervals... More about our weather records

Advertising

Historic Weather Conditions — Data for Previous 24 hours

 ConditionsComfort  
Time TempWeatherWind HumidityBarometerVisibility
5:00 AM
Apr 20
49 °FFog.2 mph94%30.00 "Hg2 mi
4:00 AM49 °FFog.3 mph94%30.01 "Hg3 mi
3:00 AM49 °FFog.3 mph93%30.01 "Hg3 mi
2:00 AM49 °FPassing clouds.2 mph92%30.01 "Hg6 mi
1:00 AM51 °FPassing clouds.3 mph90%30.02 "Hg6 mi
12:00 AM51 °FOvercast.3 mph90%30.02 "Hg6 mi
11:00 PM
Apr 19
52 °FOvercast.3 mph88%30.01 "Hg7 mi
10:00 PM52 °FOvercast.3 mph90%30.01 "Hg9 mi
9:00 PM53 °FOvercast.5 mph86%30.01 "Hg10 mi
8:00 PM53 °FLight rain. Overcast.6 mph84%30.00 "Hg12 mi
7:00 PM53 °FLight rain. Overcast.6 mph86%30.00 "Hg10 mi
6:00 PM54 °FOvercast.8 mph81%29.99 "Hg12 mi
5:00 PM56 °FLight rain. Overcast.7 mph76%29.99 "Hg11 mi
4:00 PM57 °FLight rain. Overcast.5 mph71%29.99 "Hg11 mi
3:00 PM59 °FLight rain. Overcast.6 mph65%29.98 "Hg14 mi
2:00 PM63 °FOvercast.7 mph53%29.97 "Hg14 mi
1:00 PM65 °FOvercast.8 mph41%29.96 "Hg12 mi
12:00 PM67 °FOvercast.8 mph39%29.95 "Hg12 mi
11:00 AM66 °FPartly sunny.7 mph42%29.96 "Hg16 mi
10:00 AM63 °FPartly sunny.6 mph50%29.97 "Hg13 mi
9:00 AM59 °FPartly sunny.5 mph58%29.97 "Hg14 mi
8:00 AM55 °FPartly sunny.5 mph69%29.98 "Hg15 mi
7:00 AM52 °FScattered clouds.3 mph75%29.98 "Hg11 mi
6:00 AM50 °FScattered clouds.3 mph81%29.97 "Hg9 mi
Weather by CustomWeather, © 2014

See weather overview